Stations météo

réclame
Mon MeteoGroup
Kiruna Airport, Suède (2044): Température de l'air & dewpoint: 16.10.2017 14:00:00 - 22.10.2017 14:00:00 (CEST)Kiruna Airport, Suède (2044): Vitesse du vent: 16.10.2017 14:00:00 - 22.10.2017 14:00:00 (CEST)Kiruna Airport, Suède (2044): Direction du vent: 16.10.2017 14:00:00 - 22.10.2017 14:00:00 (CEST)Kiruna Airport, Suède (2044): reduced air pressure: 16.10.2017 14:00:00 - 22.10.2017 14:00:00 (CEST)Kiruna Airport, Suède (2044): visibility: 16.10.2017 14:00:00 - 22.10.2017 14:00:00 (CEST)
Date & Time tt [°C] td [°C] ff [km/h] ff [knt] dd ppp [hPa] vv [km]
22.10.2017 14:00:00 -2,0 -3,0 0 0 N - 5
22.10.2017 13:00:00 -2,6 -3,4 0 0 N 1023,8 5
22.10.2017 12:00:00 -3,4 -4,8 0 0 N 1023,8 6
22.10.2017 11:00:00 -4,5 -6,0 5 3 SSW 1023,5 10
22.10.2017 10:00:00 -6,1 -7,2 8 4 SW 1023,6 10
22.10.2017 09:00:00 -7,9 -9,3 9 5 SSW 1023,3 10
22.10.2017 08:00:00 -8,5 -9,8 11 6 SSW 1022,9 10
22.10.2017 07:00:00 -8,3 -9,6 9 5 SSW 1022,8 10
22.10.2017 06:00:00 -8,1 -9,7 13 7 SW 1022,5 10
22.10.2017 05:00:00 -8,9 -10,2 11 6 SW 1022,5 10
22.10.2017 04:00:00 -8,2 -9,8 11 6 SSW 1022,6 10
22.10.2017 03:00:00 -9,4 -11,2 13 7 SSW 1022,8 10
22.10.2017 02:00:00 -8,4 -10,2 9 5 SW 1022,9 10
22.10.2017 01:00:00 -9,4 -10,6 11 6 SSW 1022,9 10
22.10.2017 00:00:00 -8,3 -10,5 11 6 SSW 1022,9 10
21.10.2017 23:00:00 -6,5 -8,3 13 7 SSW 1022,7 10
21.10.2017 22:00:00 -7,5 -9,7 9 5 SSW 1022,9 10
21.10.2017 21:00:00 -9,7 -10,8 5 3 WSW 1023,3 10
21.10.2017 20:00:00 -8,2 -9,4 8 4 SSW 1023,2 10
21.10.2017 19:00:00 -8,4 -9,5 8 4 SSW 1023,1 10
21.10.2017 18:00:00 -8,1 -9,7 5 3 SW 1023,2 10
21.10.2017 17:00:00 -3,4 -6,2 9 5 WSW 1022,4 10
21.10.2017 16:00:00 -1,9 -5,2 9 5 SSW 1022,4 10
21.10.2017 15:00:00 -3,6 -5,1 9 5 SW 1022,8 10
21.10.2017 14:00:00 -1,8 -4,5 9 5 SW 1022,7 10
21.10.2017 13:00:00 -2,2 -5,0 9 5 SW 1023,0 10
21.10.2017 12:00:00 -3,9 -6,4 11 6 SSW 1023,3 10
21.10.2017 11:00:00 -5,6 -8,0 16 9 SSW 1023,8 10
21.10.2017 10:00:00 -7,5 -9,4 15 8 WSW 1024,2 10
21.10.2017 09:00:00 -7,9 -10,0 11 6 S 1024,0 10
21.10.2017 08:00:00 -8,9 -10,1 9 5 SSW 1024,2 10
21.10.2017 07:00:00 - - - - - - -
21.10.2017 06:00:00 - - - - - - -
21.10.2017 05:00:00 - - - - - - -
21.10.2017 04:00:00 - - - - - - -
21.10.2017 03:00:00 - - - - - - -
21.10.2017 02:00:00 -10,0 -11,1 8 4 SW 1025,2 10
21.10.2017 01:00:00 -8,1 -8,5 9 5 SSW 1025,1 10
21.10.2017 00:00:00 -10,3 -10,8 8 4 SW 1025,5 10
20.10.2017 23:00:00 -8,7 -9,2 8 4 SW 1025,5 10
20.10.2017 22:00:00 -6,6 -7,3 11 6 SSW 1025,2 10
20.10.2017 21:00:00 -6,0 -6,9 13 7 SSW 1025,6 10
20.10.2017 20:00:00 -5,0 -6,0 11 6 S 1025,5 10
20.10.2017 19:00:00 -6,0 -6,4 11 6 SSW 1025,8 10
20.10.2017 18:00:00 -4,0 -5,4 8 4 SSW 1025,6 10
20.10.2017 17:00:00 -2,6 -4,6 9 5 SW 1025,6 10
20.10.2017 16:00:00 -1,1 -3,0 8 4 SW 1025,7 10
20.10.2017 15:00:00 -0,8 -2,5 8 4 SSW 1025,9 10
20.10.2017 14:00:00 -0,3 -2,1 8 4 SSW 1025,9 10
20.10.2017 13:00:00 -0,4 -2,5 5 3 SSW 1025,9 10
20.10.2017 12:00:00 -0,6 -2,5 4 2 WSW 1025,9 10
20.10.2017 11:00:00 -2,5 -3,6 5 3 SSW 1026,1 10
20.10.2017 10:00:00 -5,0 -5,3 5 3 SSW 1026,0 10
20.10.2017 09:00:00 -8,5 -8,9 5 3 SSW 1026,0 10
20.10.2017 08:00:00 -8,1 -8,8 4 2 S 1025,5 10
20.10.2017 07:00:00 -8,6 -9,0 4 2 - 1025,2 10
20.10.2017 06:00:00 -8,6 -9,3 4 2 SSW 1024,8 10
20.10.2017 05:00:00 -6,2 -6,2 4 2 SSE 1024,1 10
20.10.2017 04:00:00 -5,7 -5,8 5 3 WNW 1023,9 10
20.10.2017 03:00:00 -3,6 -3,7 0 0 N 1023,2 3,6
20.10.2017 02:00:00 -1,6 -2,0 8 4 NE 1022,4 10
20.10.2017 01:00:00 -1,4 -1,7 5 3 NE 1022,0 10
20.10.2017 00:00:00 -0,9 -1,5 8 4 NNE 1021,3 10
19.10.2017 23:00:00 0,0 -0,3 5 3 NE 1020,7 10
19.10.2017 22:00:00 0,4 -0,2 9 5 NNE 1020,0 10
19.10.2017 21:00:00 0,5 -0,1 11 6 N 1019,6 10
19.10.2017 20:00:00 0,6 0,5 11 6 N 1019,0 10
19.10.2017 19:00:00 0,7 0,4 11 6 N 1018,5 10
19.10.2017 18:00:00 0,8 0,7 11 6 NNW 1017,9 6
19.10.2017 17:00:00 0,9 0,8 13 7 NNW 1017,7 6
19.10.2017 16:00:00 1,5 0,3 9 5 NNW 1017,3 10
19.10.2017 15:00:00 1,2 0,5 8 4 WSW 1017,0 10
19.10.2017 14:00:00 0,8 0,4 11 6 SW 1016,7 10
19.10.2017 13:00:00 0,6 0,5 11 6 SW 1016,5 1,3
19.10.2017 12:00:00 0,6 0,2 9 5 WNW 1016,4 1,5
19.10.2017 11:00:00 0,6 -2,0 8 4 SSW 1016,0 10
19.10.2017 10:00:00 0,3 -2,6 9 5 SW 1014,7 10
19.10.2017 09:00:00 0,3 -2,6 5 3 SSW 1014,7 10
19.10.2017 08:00:00 -0,4 -2,0 5 3 - 1014,6 10
19.10.2017 07:00:00 1,0 -0,6 5 3 NW 1014,3 10
19.10.2017 06:00:00 1,1 -0,4 9 5 NNW 1013,7 10
19.10.2017 05:00:00 1,5 -0,3 11 6 NNW 1013,3 10
19.10.2017 04:00:00 0,7 -0,5 11 6 NW 1013,0 10
19.10.2017 03:00:00 0,4 -0,7 11 6 NNW 1012,6 10
19.10.2017 02:00:00 -0,2 -1,0 9 5 NW 1012,2 10
19.10.2017 01:00:00 0,8 -0,7 11 6 NNW 1011,5 10
19.10.2017 00:00:00 0,0 -1,1 11 6 NW 1011,2 10
18.10.2017 23:00:00 0,2 -1,1 11 6 NW 1010,6 10
18.10.2017 22:00:00 0,4 -0,7 13 7 NNW 1009,8 10
18.10.2017 21:00:00 0,6 -0,5 11 6 N 1009,0 10
18.10.2017 20:00:00 1,0 -0,6 8 4 NNW 1008,4 10
18.10.2017 19:00:00 0,5 -0,5 5 3 NNW 1007,9 10
18.10.2017 18:00:00 0,3 -0,3 5 3 - 1007,3 10
18.10.2017 17:00:00 0,3 0,0 8 4 NNW 1006,7 10
18.10.2017 16:00:00 0,9 0,6 9 5 NNW 1005,9 10
18.10.2017 15:00:00 0,8 0,7 8 4 N 1005,2 4,2
18.10.2017 14:00:00 1,7 1,1 5 3 NE 1004,0 10
18.10.2017 13:00:00 2,2 1,8 4 2 - 1003,3 10
18.10.2017 12:00:00 0,8 0,8 0 0 N 1002,8 10
18.10.2017 11:00:00 0,1 0,1 4 2 S 1002,3 10
18.10.2017 10:00:00 -0,9 -0,9 0 0 N 1001,8 2,0
18.10.2017 09:00:00 -1,4 -1,4 0 0 N 1001,2 0,2
18.10.2017 08:00:00 -1,2 -1,2 4 2 NE 1000,7 0,2
18.10.2017 07:00:00 -1,2 -1,2 4 2 NNW 1000,1 0,2
18.10.2017 06:00:00 -1,5 -1,5 2 1 N 999,8 2,0
18.10.2017 05:00:00 -1,4 -1,8 4 2 ENE 999,5 6
18.10.2017 04:00:00 -1,8 -2,4 0 0 N 999,2 10
18.10.2017 03:00:00 -2,2 -2,3 4 2 - 999,0 10
18.10.2017 02:00:00 -2,5 -2,8 5 3 S 998,8 10
18.10.2017 01:00:00 -2,8 -3,1 8 4 SSW 998,8 10
18.10.2017 00:00:00 -3,1 -3,6 5 3 SSW 998,8 10
17.10.2017 23:00:00 -2,5 -3,3 5 3 S 998,8 10
17.10.2017 22:00:00 -4,5 -4,6 5 3 SSW 999,2 10
17.10.2017 21:00:00 -2,6 -3,1 5 3 SW 999,0 10
17.10.2017 20:00:00 -3,3 -4,0 8 4 WSW 999,1 10
17.10.2017 19:00:00 -2,4 -3,2 9 5 WSW 999,1 10
17.10.2017 18:00:00 -1,9 -2,6 5 3 SW 999,4 10
17.10.2017 17:00:00 0,3 -1,1 0 0 N 999,3 10
17.10.2017 16:00:00 3,6 -0,2 8 4 SSW 999,1 10
17.10.2017 15:00:00 4,9 0,3 13 7 WSW 999,0 10
17.10.2017 14:00:00 6,0 0,3 8 4 SSW 999,0 10
17.10.2017 13:00:00 5,1 0,7 4 2 - 999,3 10
17.10.2017 12:00:00 4,5 0,1 5 3 - 999,5 10
17.10.2017 11:00:00 4,3 0,1 0 0 N 999,7 10
17.10.2017 10:00:00 2,5 -0,4 5 3 ESE 1000,0 10
17.10.2017 09:00:00 -0,4 -2,1 9 5 WSW 1000,1 10
17.10.2017 08:00:00 -1,4 -2,1 5 3 SW 999,8 10
17.10.2017 07:00:00 -0,3 -1,3 9 5 SW 999,4 10
17.10.2017 06:00:00 0,7 -0,8 9 5 W 999,1 10
17.10.2017 05:00:00 -0,1 -0,9 13 7 WNW 998,9 10
17.10.2017 04:00:00 0,9 -0,1 5 3 - 998,7 10
17.10.2017 03:00:00 3,0 0,2 9 5 NW 997,9 10
17.10.2017 02:00:00 2,8 0,0 18 10 WNW 997,5 10
17.10.2017 01:00:00 3,1 0,0 15 8 W 996,5 10
17.10.2017 00:00:00 2,2 -0,1 9 5 W 996,1 10
16.10.2017 23:00:00 2,4 0,1 9 5 WSW 995,3 10
16.10.2017 22:00:00 2,2 0,3 11 6 WSW 994,7 10
16.10.2017 21:00:00 3,1 0,3 15 8 W 993,9 10
16.10.2017 20:00:00 3,5 0,5 15 8 WNW 993,1 10
16.10.2017 19:00:00 3,8 0,5 16 9 W 992,4 10
16.10.2017 18:00:00 3,3 0,9 11 6 NW 991,7 10
16.10.2017 17:00:00 1,5 0,6 11 6 NW 991,6 10
16.10.2017 16:00:00 1,7 0,8 2 1 - 991,3 10
16.10.2017 15:00:00 1,5 0,8 9 5 NW 991,0 10
16.10.2017 14:00:00 1,4 0,7 11 6 NW 990,3 10

tt = Température de l'air
td = dewpoint
ff = Vitesse du vent
dd = Direction du vent
ppp = reduced air pressure
vv = visibility

stations d'obs. à proximité